Tracking 27420 objects as of 29-May-2023
HD Live streaming from Space Station
objects crossing your sky now

STARLINK-1302

Track STARLINK-1302 now!
10-day predictions
STARLINK-1302 is classified as:


NORAD ID: 45375
Int'l Code: 2020-019R
Perigee: 553.5 km
Apogee: 555.3 km
Inclination: 53.1 °
Period: 95.6 minutes
Semi major axis: 6925 km
RCS: Unknown
Launch date: March 18, 2020
Source: United States (US)
Launch site: AIR FORCE EASTERN TEST RANGE (AFETR)
Your satellite tracking list
Your tracking list is empty




NASA's NSSDC Master Catalog

Two Line Element Set (TLE):
1 45375U 20019R   23148.01049410  .00003534  00000-0  25607-3 0  9991
2 45375  53.0550  50.6695 0001288  96.3175 263.7961 15.06395271176495
Source of the keplerian elements: AFSPC